This demonstration page uses our WeatherBlox Daily Observations layout. Learn more.

Left ArrowRight Arrow

Hourly Observations for August 7, 2017

Temp ( °F °C ) Dew Point ( °F °C ) Humidity (%) Winds ( mph kmh ) Pressure ( in mb ) Visibility ( mi km ) Precip ( " mm )
12:45 am 00:45 Cloudy 68 20 68 20 100 100 NNW 3 6 29.97 1015 10 16 0.00 0.00
12:52 am 00:52 Cloudy 68 20 68 20 100 100 NNW 3 6 29.95 1014 10 16 0.00 0.00
1:19 am 01:19 Cloudy 68 20 68 20 100 100 NNW 5 7 29.97 1015 8 13 0.00 0.00
1:52 am 01:52 Cloudy 68 20 68 20 100 100 N 3 6 29.96 1014 9 14 0.00 0.00
2:52 am 02:52 Cloudy with Mist and Fog 68 20 68 20 100 100 N 3 6 29.96 1014 5 8 0.00 0.00
3:25 am 03:25 Cloudy with Mist and Fog 68 20 68 20 100 100 NNW 3 6 29.97 1015 3 4 0.00 0.00
3:37 am 03:37 Cloudy with Mist and Fog 68 20 68 20 100 100 Calm 29.97 1015 2 2 0.00 0.00
3:52 am 03:52 Cloudy with Mist and Fog 68 20 68 20 100 100 N 3 6 29.95 1014 3 4 0.00 0.00
4:22 am 04:22 Cloudy with Mist and Fog 68 20 68 20 100 100 NNW 5 7 29.94 1014 2 3 0.00 0.00
4:38 am 04:38 Cloudy with Mist and Fog 68 20 68 20 100 100 N 6 9 29.97 1015 2 3 0.00 0.00
4:52 am 04:52 Cloudy with Mist and Fog 68 20 68 20 100 100 N 6 9 29.96 1014 3 4 0.00 0.00
5:28 am 05:28 Cloudy with Mist and Fog 67 19.4 67 19.4 100 100 N 6 9 29.94 1014 2 2 0.00 0.00
5:52 am 05:52 Cloudy with Mist and Fog 67 19.4 67 19.4 100 100 N 9 15 29.96 1014 2 2 0.00 0.00
5:58 am 05:58 Cloudy with Mist and Fog 67 19.4 67 19.4 100 100 N 9 15 29.94 1014 3 5 0.00 0.00
6:52 am 06:52 Cloudy 67 19.4 66 18.9 97 97 NNE 8 13 29.97 1015 10 16 0.00 0.00
7:52 am 07:52 Cloudy 69 20.6 67 19.4 93 93 NNE 6 9 29.98 1015 10 16 0.00 0.00
8:52 am 08:52 Cloudy 71 21.7 68 20 90 90 NE 8 13 30.00 1016 10 16 0.00 0.00
9:21 am 09:21 Mostly Cloudy 72 22.2 68 20 87 87 NNE 8 13 30.00 1016 10 16 0.00 0.00
9:42 am 09:42 Partly Cloudy 74 23.3 69 20.6 85 85 NNE 8 13 29.97 1015 10 16 0.00 0.00
9:52 am 09:52 Mostly Cloudy 75 23.9 68 20 79 79 NNE 9 15 30.01 1016 10 16 0.00 0.00
10:00 am 10:00 Partly Cloudy 75 23.9 68 20 79 79 NE 9 15 29.97 1015 10 16 0.00 0.00
10:09 am 10:09 Mostly Cloudy 75 23.9 67 19.4 76 76 N 10 17 30.00 1016 10 16 0.00 0.00
10:16 am 10:16 Mostly Sunny 75 23.9 67 19.4 76 76 NNE 12 19 30.00 1016 10 16 0.00 0.00
10:52 am 10:52 Cloudy 76 24.4 67 19.4 74 74 NNE 9 15 30.03 1017 10 16 0.00 0.00
11:21 am 11:21 Cloudy 75 23.9 67 19.4 76 76 NNE 10 17 30.00 1016 10 16 0.00 0.00
11:28 am 11:28 Cloudy 76 24.4 67 19.4 74 74 NNE 14 22 30.00 1016 10 16 0.00 0.00
11:52 am 11:52 Cloudy 77 25 67 19.4 71 71 NNE 13 20 30.04 1017 10 16 0.00 0.00
12:52 pm 12:52 Cloudy 78 25.6 67 19.4 69 69 NE 9 15 30.04 1017 10 16 0.00 0.00
1:52 pm 13:52 Cloudy 80 26.7 67 19.4 64 64 NNE 9 15 30.02 1017 10 16 0.00 0.00
2:52 pm 14:52 Mostly Cloudy 81 27.2 67 19.4 62 62 NNE 9 15 30.01 1016 10 16 0.00 0.00
3:52 pm 15:52 Partly Cloudy 80 26.7 67 19.4 64 64 NNE 3 6 30.01 1016 10 16 0.00 0.00
4:52 pm 16:52 Mostly Sunny 81 27.2 66 18.9 61 61 NNE 7 11 30.01 1016 10 16 0.00 0.00
5:52 pm 17:52 Sunny 80 26.7 65 18.3 60 60 NE 8 13 30.00 1016 10 16 0.00 0.00
6:52 pm 18:52 Mostly Sunny 78 25.6 66 18.9 67 67 N 8 13 30.01 1016 10 16 0.00 0.00
7:52 pm 19:52 Mostly Sunny 75 23.9 67 19.4 76 76 N 9 15 30.02 1017 10 16 0.00 0.00
8:52 pm 20:52 Clear 73 22.8 66 18.9 79 79 N 9 15 30.04 1017 10 16 0.00 0.00
9:52 pm 21:52 Clear 71 21.7 66 18.9 84 84 NNE 8 13 30.06 1018 10 16 0.00 0.00
10:52 pm 22:52 Clear 70 21.1 65 18.3 84 84 NE 7 11 30.07 1018 10 16 0.00 0.00
11:52 pm 23:52 Clear 68 20 64 17.8 87 87 NE 6 9 30.09 1019 10 16 0.00 0.00

Powered by AerisWeather